Rbgn^[z[y[W
メイン
   新天体発見情報
     Comet C/2020 PV6 (PANSTARRS)
投稿するにはまず登録を

スレッド表示 | 新しいものから 前のトピック | 次のトピック | 下へ
投稿者 スレッド
佐藤裕久
投稿日時: 2021-6-17 17:10
モデレータ
登録日: 2005-6-12
居住地: 日本
投稿: 2462
オンライン
Comet C/2020 PV6 (PANSTARRS)

昨年、HaleakalaにあるPan-STARRS1 1.8-m Ritchey-Chretien反射望遠鏡で得た画像から小惑星
状天体が発見され、小惑星センターは、小惑星仮符号を2020 PV6とつけていた(MPEC 2020-Q118)。
最近、近日点近くになり彗星活動が見られるようになった。
佐藤英貴氏(東京都文京区, 2021年5月17.77日UT、60秒露出4枚のスタック, 0.51-m f/6.8 アス
トログラフ, Siding Spring, NSW, オーストラリア, 遠隔操作:強く集光した20"のコマとp.a. 
210-240°に向かって50" 伸びた扇のような尾が見える。11".5の円形範囲で測定した全光度は
16.0等であった。5月18.78日、追加60秒露出14枚のスタック:強く集光した20"のコマが見え、前
日と同じく扇のような尾が見える。10".9の円形範囲で測定した光度は15.9 等であった)らCCD
位置観測者によって彗星状と観測された。

彗星機能の報告は次の通り:

OC   Date        Reporter           Coma    Tail    PA          Exposures
Q62  2021-05-18  H. Sato           20"     50"      210-240      14x60s
204  2021-05-19  A. Aletti         15"     60"      210-240      75x30s
T04  2021-05-19  A. Hale           15"     34"      230
Q59  2021-05-23  A. Hale            8"     12"      225
T08  2021-05-25  A. Fitzsimmons    11"     45"      230             30s
204  2021-05-26  L. Buzzi          20"     45"      227          60x20s

発見位置は次のとおり、

     2020 UT             R.A. (2000) Decl.       Mag.
     July 21.56976    0 16 21.33   -21 24 02.8   22.2
          21.59203    0 16 20.39   -21 24 09.2   22.5
          21.60319    0 16 19.90   -21 24 12.2   22.1
     Aug. 13.50844   23 54 30.06   -23 23 35.2   21.4
          13.51914   23 54 29.28   -23 23 38.5   21.4
          13.54055   23 54 27.70   -23 23 45.7   21.1
          14.49818   23 53 17.41   -23 29 00.2   21.7
          14.50744   23 53 16.71   -23 29 03.3   21.8
          14.51671   23 53 16.02   -23 29 06.2   21.6
          14.52594   23 53 15.33   -23 29 09.4   21.4

MPCの楕円軌道要素、位置推算表は次のとおり、

Orbital elements:
    C/2020 PV6 (PANSTARRS)                                                      
Epoch 2021 Sept. 23.0 TT = JDT 2459480.5                                        
T 2021 Sept. 25.99886 TT                                Rudenko                 
q   2.2956390            (2000.0)            P               Q                  
z  +0.0239867      Peri.   71.38022     -0.02673952     -0.91488204             
 +/-0.0000000      Node   329.14388     -0.90829804     +0.19052707             
e   0.9449352      Incl.  128.23948     +0.41746816     +0.35593580             
From 77 observations 2020 July 21-2021 May 26, mean residual 0".4.              
                                                                                
    C/2020 PV6 (PANSTARRS)                                                      
Epoch 2020 Dec. 17.0 TT = JDT 2459200.5                                         
T 2021 Sept. 25.98984 TT                                Rudenko                 
q   2.2947732            (2000.0)            P               Q                  
z  +0.0236841      Peri.   71.39903     -0.02692926     -0.91480978             
 +/-0.0000000      Node   329.14110     -0.90810210     +0.19091037             
e   0.9456504      Incl.  128.21804     +0.41788204     +0.35591613             
From 77 observations 2020 July 21-2021 May 26, mean residual 0".4.              
                                                                                
Ephemeris:
Date    TT    R. A. (2000) Decl.     Delta      r    Elong.  Phase   m1
2021 04 29    22 10 04.0 +03 38 22   3.1094  2.8112    63.7    18.7  17.0
...
2021 05 14    22 04 51.9 +07 52 06   2.7548  2.7235    77.6    21.3  16.6
...
2021 05 22    21 59 18.8 +10 26 33   2.5638  2.6790    85.4    22.1  16.3
...
2021 05 28    21 53 28.1 +12 32 27   2.4230  2.6468    91.3    22.5  16.1
2021 05 29    21 52 19.9 +12 54 18   2.3999  2.6415    92.2    22.5  16.1
2021 05 30    21 51 08.7 +13 16 25   2.3769  2.6363    93.2    22.6  16.1
...
2021 06 05    21 42 53.1 +15 34 24   2.2423  2.6055    99.2    22.6  15.9
...
2021 06 13    21 28 20.8 +18 51 21   2.0750  2.5662   107.2    22.2  15.7
...
2021 06 28    20 47 22.3 +25 19 02   1.8212  2.4983   120.7    20.5  15.3

(MPEC 2021-K93、CBET 4969)

スレッド表示 | 新しいものから 前のトピック | 次のトピック | トップ

投稿するにはまず登録を
 
© 1999 Tsutomu Seki.